TimeMST,TemperatureF,Dew PointF,Humidity,Sea Level PressureIn,VisibilityMPH,Wind Direction,Wind SpeedMPH,Gust SpeedMPH,PrecipitationIn,Events,Conditions,WindDirDegrees,DateUTC
12:53 AM,19.9,3.9,50,30.08,10.0,NE,4.6,-,N/A,,Clear,50,2012-12-13 07:53:00
1:53 AM,17.1,1.9,52,30.09,10.0,NE,8.1,-,N/A,,Clear,50,2012-12-13 08:53:00
2:53 AM,17.1,1.9,52,30.09,10.0,East,4.6,-,N/A,,Clear,90,2012-12-13 09:53:00
3:53 AM,18.0,3.0,52,30.10,10.0,NE,6.9,-,N/A,,Clear,50,2012-12-13 10:53:00
4:53 AM,12.0,1.9,64,30.17,10.0,Calm,Calm,-,N/A,,Clear,0,2012-12-13 11:53:00
5:53 AM,12.0,1.9,64,30.25,10.0,Calm,Calm,-,N/A,,Clear,0,2012-12-13 12:53:00
6:53 AM,10.0,-0.0,64,30.29,10.0,Calm,Calm,-,N/A,,Clear,0,2012-12-13 13:53:00
7:53 AM,12.9,1.9,62,30.30,10.0,South,3.5,-,N/A,,Clear,190,2012-12-13 14:53:00
8:53 AM,21.9,5.0,48,30.17,10.0,Calm,Calm,-,N/A,,Clear,0,2012-12-13 15:53:00
9:53 AM,30.9,10.0,42,30.16,10.0,WNW,3.5,-,N/A,,Clear,290,2012-12-13 16:53:00
10:53 AM,46.9,18.0,32,30.06,10.0,South,16.1,25.3,N/A,,Clear,180,2012-12-13 17:53:00
11:00 AM,48.2,17.6,30,30.06,10.0,South,19.6,24.2,N/A,,Clear,170,2012-12-13 18:00:00
11:53 AM,50.0,17.1,27,30.02,10.0,South,11.5,-,N/A,,Clear,180,2012-12-13 18:53:00
12:53 PM,54.0,12.9,20,29.94,10.0,SSW,12.7,21.9,N/A,,Clear,200,2012-12-13 19:53:00
1:53 PM,52.0,12.9,21,29.94,10.0,SSW,12.7,-,N/A,,Clear,200,2012-12-13 20:53:00
2:53 PM,55.0,16.0,22,29.91,10.0,South,11.5,-,N/A,,Clear,190,2012-12-13 21:53:00
6:53 PM,45.0,18.0,34,30.04,10.0,SSW,5.8,-,N/A,,Overcast,200,2012-12-14 01:53:00
7:53 PM,37.9,17.1,43,30.06,10.0,Calm,Calm,-,N/A,,Mostly Cloudy,0,2012-12-14 02:53:00
8:53 PM,35.1,16.0,46,30.00,10.0,Calm,Calm,-,N/A,,Clear,0,2012-12-14 03:53:00
9:53 PM,32.0,12.9,45,29.93,10.0,ENE,3.5,-,N/A,,Clear,60,2012-12-14 04:53:00
11:53 PM,35.1,15.1,44,29.76,10.0,Variable,5.8,-,N/A,,Overcast,0,2012-12-14 06:53:00